Location: ???? ????
(31.2831°N, 45.5190°E)
Time: 08:04:59
(UTC+00:00)

Cosmos 2297 Rocket - Pass Details

Date: 24 February 2021
Orbit: 839 x 844 km, 71.0° (Epoch: 15 April)

Event Time Altitude Azimuth Distance (km) Brightness Sun altitude
Rises 15:05:30 0° 339° (NNW) 3,398 5.5 -3.6°
Reaches altitude 10° 15:07:56 10° 339° (NNW) 2,461 4.8 -4.1°
Maximum altitude 15:13:36 87° 252° (WSW) 847 2.3 -5.3°
Drops below altitude 10° 15:19:14 10° 163° (SSE) 2,451 4.5 -6.5°
Sets 15:21:40 0° 163° (SSE) 3,384 5.2 -7.0°
